DateTimeUTC,F1_A11,F1_S11,BsB_S11,BsG_S11,BsR_S11,BbsB_S11,BbsG_S11,BbsR_S11,BaB_A11,BaG_A11,BaR_A11,Tu_S11,T_S11,Uu_S11,U_S11,P_S11,T1_A11
2021-09-11T11:00:00Z,00000200,21000000,,,,,,,0000.01,0000.38,0000.27,18.5,25.6,,00.0,0667.6,31.0
2021-09-11T11:01:00Z,00000200,21000000,,,,,,,0000.01,-000.09,0000.04,18.5,25.7,,00.0,0667.6,31.1
2021-09-11T11:02:00Z,00000200,21000000,,,,,,,-000.03,0000.16,-000.16,18.6,25.7,,00.0,0667.6,31.1
2021-09-11T11:03:00Z,00000200,61000000,,,,,,,0000.09,-000.01,0000.21,18.6,25.7,,00.0,0667.6,31.1
2021-09-11T11:04:00Z,00000200,41000000,0000.65,0000.49,0000.10,0000.45,0000.24,-000.25,-000.00,-000.08,-000.16,19.0,25.6,,00.0,0668.5,31.1
2021-09-11T11:05:00Z,00000200,01000000,0000.43,0000.55,0000.39,0000.07,0000.64,-000.14,0000.10,-000.11,-000.13,19.0,25.6,,00.0,0668.5,31.1
2021-09-11T11:06:00Z,00000200,01000000,0000.54,0001.01,0000.51,-000.08,0000.22,0000.02,0000.08,0000.17,-000.02,18.9,25.5,,00.0,0668.6,31.1
2021-09-11T11:07:00Z,00000200,01000000,0000.92,0000.71,0000.41,0000.21,0000.07,0000.26,0000.20,-000.20,-000.14,18.9,25.5,,00.0,0668.6,31.0
2021-09-11T11:08:00Z,00000200,01000000,0000.39,0000.42,0000.41,0000.35,0000.15,0000.33,-000.08,0000.48,0000.50,18.8,25.4,,00.0,0668.6,31.0
2021-09-11T11:09:00Z,00000200,01000000,0000.95,0000.46,0000.39,0000.44,0000.08,0000.09,0000.24,0000.18,0000.09,18.7,25.4,,00.0,0668.6,31.0
2021-09-11T11:10:00Z,00000200,01000000,0000.29,0000.84,0000.30,-000.05,-000.30,0000.19,-000.05,-000.23,0000.01,18.7,25.3,,00.0,0668.6,31.0
2021-09-11T11:11:00Z,00000200,01000000,0000.42,0000.68,0000.27,-000.39,0000.28,0000.29,0000.57,0000.50,0000.44,18.6,25.3,,00.0,0668.5,31.0
2021-09-11T11:12:00Z,00000200,01000000,0000.55,0000.81,0000.51,0000.26,0000.19,0000.20,0000.46,0000.41,0000.47,18.6,25.3,,00.0,0668.5,31.0
2021-09-11T11:13:00Z,00000200,01000000,0001.78,0000.83,0000.62,0000.31,-000.10,0000.10,0000.14,0000.16,-000.08,18.7,25.3,,00.0,0668.5,31.0
2021-09-11T11:14:00Z,00000200,01000000,0000.41,0000.73,0000.18,-000.45,-000.23,-000.13,0000.22,0000.50,0000.37,18.7,25.3,,00.0,0668.6,31.0
2021-09-11T11:15:00Z,00000200,01000000,0000.56,0000.64,0000.65,0000.21,0000.14,0000.08,0000.14,0000.10,0000.12,18.8,25.4,,00.0,0668.6,31.0
2021-09-11T11:16:00Z,00000200,01000000,0001.12,0000.45,0000.26,0000.15,0000.02,-000.13,0000.31,0000.25,0000.31,18.9,25.4,,00.0,0668.7,31.1
2021-09-11T11:17:00Z,00000200,01000000,0000.37,0000.89,0000.16,0000.09,0000.02,-000.14,0000.36,0000.55,0000.10,19.0,25.5,,00.0,0668.7,31.1
2021-09-11T11:18:00Z,00000200,01000000,0000.87,0001.03,0000.38,0000.02,0000.15,-000.03,0000.29,0000.55,0000.57,19.1,25.5,,00.0,0668.7,31.1
2021-09-11T11:19:00Z,00000200,01000000,0000.97,0000.69,0000.24,-001.16,-000.01,0000.40,0000.23,-000.90,-000.35,19.2,25.6,,00.0,0668.8,31.1
2021-09-11T11:20:00Z,00000200,01000000,0000.38,0000.79,0000.31,0000.39,-000.05,0000.36,0000.09,0000.76,0000.16,19.3,25.6,,00.0,0668.7,31.1
2021-09-11T11:21:00Z,00000200,01000000,0000.68,0000.92,0000.40,0000.64,0000.12,0000.15,0000.13,-000.07,0000.11,19.3,25.6,,00.0,0668.7,31.1
2021-09-11T11:22:00Z,00000200,01000000,0000.82,0000.73,0000.48,0000.40,0000.03,0000.31,-000.06,-000.13,0000.12,19.2,25.6,,00.0,0668.7,31.1
2021-09-11T11:23:00Z,00000200,01000000,-000.14,0000.64,0000.76,0000.27,-000.14,0000.55,0000.20,-000.16,0000.01,19.1,25.6,,00.0,0668.7,31.1
2021-09-11T11:24:00Z,00000200,01000000,0000.41,0000.54,0000.45,0000.20,-000.04,-000.12,-000.06,0000.26,-000.02,19.1,25.5,,00.0,0668.7,31.0
2021-09-11T11:25:00Z,00000200,01000000,0001.18,0000.81,0000.33,-000.12,0000.13,-000.01,0000.24,0000.23,-000.07,19.0,25.5,,00.0,0668.7,31.0
2021-09-11T11:26:00Z,00000200,01000000,0000.64,0000.84,0000.46,0001.00,0000.16,0000.22,0000.38,0000.27,0000.45,18.9,25.4,,00.0,0668.6,31.0
2021-09-11T11:27:00Z,00000200,01000000,0000.10,0000.77,0000.30,0000.08,-000.05,-000.03,0000.20,0000.56,0000.09,18.9,25.4,,00.0,0668.7,31.0
2021-09-11T11:28:00Z,00000200,01000000,0000.64,0000.58,0000.47,0000.53,0000.11,0000.14,0000.45,0000.20,0000.55,19.0,25.4,,00.0,0668.7,31.0
2021-09-11T11:29:00Z,00000200,01000000,0000.87,0000.94,0000.63,-000.23,0000.05,0000.27,0000.31,0000.53,0000.18,19.0,25.5,,00.0,0668.7,31.1
2021-09-11T11:30:00Z,00000200,01000000,0000.97,0000.61,0000.24,-000.49,-000.00,0000.24,0000.01,0000.10,0000.39,19.1,25.5,,00.0,0668.7,31.1
2021-09-11T11:31:00Z,00000200,01000000,0000.69,0000.65,0000.27,0000.18,0000.17,0000.32,0000.12,0000.27,0000.08,19.2,25.6,,00.0,0668.7,31.1
2021-09-11T11:32:00Z,00000200,01000000,0001.47,0000.88,0000.56,0000.19,0000.28,0000.37,0000.44,0000.03,0000.04,19.3,25.6,,00.0,0668.7,31.1
2021-09-11T11:33:00Z,00000200,01000000,0001.12,0000.45,0000.40,0000.21,0000.10,0000.19,-000.08,0000.19,-000.13,19.3,25.6,,00.0,0668.7,31.1
2021-09-11T11:34:00Z,00000200,01000000,0000.98,0000.23,0000.36,0000.07,0000.13,0000.32,0000.17,-000.27,-000.07,19.3,25.6,,00.0,0668.7,31.1
2021-09-11T11:35:00Z,00000200,01000000,0001.08,0000.53,0000.54,0000.45,0000.26,-000.02,0000.41,0000.37,0000.19,19.2,25.6,,00.0,0668.7,31.1
2021-09-11T11:36:00Z,00000200,01000000,0001.43,0000.69,0000.25,-000.47,0000.09,0000.03,-000.08,-000.32,0000.11,19.1,25.5,,00.0,0668.7,31.0
2021-09-11T11:37:00Z,00000200,01000000,0001.00,0000.68,0000.52,-000.06,0000.36,0000.53,-000.17,0000.12,-000.03,19.0,25.5,,00.0,0668.7,31.0
2021-09-11T11:38:00Z,00000200,01000000,0001.27,0000.67,0000.55,0000.24,0000.32,0000.33,0000.39,0000.30,0000.05,19.0,25.5,,00.0,0668.7,31.0
2021-09-11T11:39:00Z,00000200,01000000,0000.25,0000.63,0000.56,-000.31,0000.22,0000.22,-000.46,-000.22,-000.09,18.9,25.4,,00.0,0668.7,31.0
2021-09-11T11:40:00Z,00000200,01000000,0000.91,0000.40,0000.47,0000.05,0000.10,0000.01,0000.41,0000.16,0000.32,18.9,25.4,,00.0,0668.7,31.0
2021-09-11T11:41:00Z,00000200,01000000,0001.40,0000.39,0000.43,0000.68,0000.04,0000.16,0000.40,0000.26,0000.03,18.8,25.4,,00.0,0668.7,31.0
2021-09-11T11:42:00Z,00000200,01000000,0000.05,0000.62,0000.43,0000.38,0000.44,0000.00,0000.19,0000.51,0000.61,18.8,25.4,,00.0,0668.7,31.0
2021-09-11T11:43:00Z,00000200,01000000,0001.41,0000.60,0000.30,-000.01,0000.22,0000.10,0000.40,0000.14,0000.05,18.8,25.4,,00.0,0668.7,31.0
2021-09-11T11:44:00Z,00000200,01000000,0000.90,0000.73,0000.60,-000.15,-000.04,0000.24,0000.34,0000.74,0000.37,18.9,25.4,,00.0,0668.7,31.0
2021-09-11T11:45:00Z,00000200,01000000,0000.36,0000.51,0000.42,-000.17,-000.01,0000.10,0000.30,0000.17,0000.75,19.1,25.4,,00.0,0668.8,31.0
2021-09-11T11:46:00Z,00000200,01000000,-000.06,0000.75,0000.52,0000.38,-000.14,-000.17,0000.27,0000.24,-000.31,19.1,25.5,,00.0,0668.8,31.1
2021-09-11T11:47:00Z,00000200,01000000,0000.63,0000.75,0000.62,0000.32,-000.06,0000.11,0000.16,-000.09,0000.11,19.2,25.5,,00.0,0668.8,31.1
2021-09-11T11:48:00Z,00000200,01000000,0000.47,0000.72,0000.76,0000.59,0000.12,0000.15,0000.24,0000.57,0000.23,19.3,25.6,,00.0,0668.8,31.1
2021-09-11T11:49:00Z,00000200,01000000,0001.52,0000.83,0000.45,0000.82,0000.02,0000.19,-000.00,-000.44,-000.10,19.3,25.6,,00.0,0668.8,31.1
2021-09-11T11:50:00Z,00000200,01000000,0000.79,0000.71,0000.32,-000.32,0000.15,0000.28,0000.06,-000.03,-000.15,19.3,25.6,,00.0,0668.8,31.1
2021-09-11T11:51:00Z,00000200,01000000,0001.13,0000.69,0000.49,-000.31,0000.22,0000.39,-000.24,0000.26,0000.11,19.2,25.6,,00.0,0668.8,31.1
2021-09-11T11:52:00Z,00000200,01000000,0000.70,0000.99,0000.53,0000.07,0000.06,0000.05,0000.09,-000.40,0000.00,19.2,25.6,,00.0,0668.8,31.0
2021-09-11T11:53:00Z,00000200,01000000,0001.42,0000.46,0000.63,0000.01,-000.06,0000.35,0000.08,0000.46,-000.32,19.1,25.5,,00.0,0668.7,31.0
2021-09-11T11:54:00Z,00000200,01000000,0000.94,0000.55,0000.26,0000.03,0000.11,0000.13,0000.33,0000.10,0000.38,19.0,25.5,,00.0,0668.7,31.0
2021-09-11T11:55:00Z,00000200,01000000,0000.71,0000.55,0000.35,0000.09,0000.13,0000.30,-000.08,0000.07,0000.07,19.0,25.4,,00.0,0668.7,31.0
2021-09-11T11:56:00Z,00000200,01000000,0000.59,0000.77,0000.47,0000.24,-000.11,0000.27,0000.43,0000.21,0000.14,18.9,25.4,,00.0,0668.7,31.0
2021-09-11T11:57:00Z,00000200,41000000,,,,,,,0000.81,0000.78,0000.88,18.9,25.4,,00.0,0668.7,31.0
2021-09-11T11:58:00Z,00000200,61000000,,,,,,,-000.39,-000.16,-000.09,18.7,25.6,,00.0,0667.7,31.0
2021-09-11T11:59:00Z,00000200,21000000,,,,,,,0000.00,0000.14,0000.08,18.7,25.7,,00.0,0667.7,31.0
